[Date Prev][Date Next][Thread Prev][Thread Next] - [Date Index][Thread Index][Author Index]
2 Line ISS Keps 7-10
- Subject: [sarex] 2 Line ISS Keps 7-10
- From: "Dave Larsen PhD" <doc@xxxxxxxxxxx>
- Date: Tue, 10 Jul 2001 05:43:27 -0700
ISS
1 25544U 98067A 01191.50449601 .00034849 00000-0 36286-3 0 1955
2 25544 51.5712 330.6756 0016251 267.1424 175.7821 15.64059354150722
----
Via the sarex mailing list at AMSAT.ORG courtesy of AMSAT-NA.
To unsubscribe, send "unsubscribe sarex" to Majordomo@amsat.org
AMSAT Home